,,,PA_Meas_PMT16A,,PR_Meas_QMR101_102,,RH_Meas_QMH101,,SR_Meas_QMS101,,TA_Meas_QMH101,,GenWind,,GenWind,
date,time,status,PA,status,PR,status,RH,status,SR,status,TA,status,DirAvg,status,SpdAvg,
2008-04-06, 00:00:04,VALID,1011.53,VALID,0,VALID,96.7937,VALID,0,VALID,23.2866,VALID,94,VALID,0.182812,
2008-04-06, 00:01:04,VALID,1011.48,VALID,0,VALID,96.7708,VALID,0,VALID,23.2671,VALID,94,VALID,0.201562,
2008-04-06, 00:02:04,VALID,1011.47,VALID,0,VALID,96.7784,VALID,0,VALID,23.2671,VALID,94,VALID,0.228125,
2008-04-06, 00:03:04,VALID,1011.46,VALID,0,VALID,96.7937,VALID,0,VALID,23.2476,VALID,94,VALID,0.192578,
2008-04-06, 00:04:04,VALID,1011.48,VALID,0,VALID,96.7708,VALID,0,VALID,23.2264,VALID,94,VALID,0.311328,
2008-04-06, 00:05:04,VALID,1011.47,VALID,0,VALID,96.7784,VALID,0,VALID,23.2671,VALID,309,VALID,0.374609,
2008-04-06, 00:06:04,VALID,1011.48,VALID,0,VALID,96.7327,VALID,0,VALID,23.2282,VALID,309,VALID,0.394922,
2008-04-06, 00:07:04,VALID,1011.45,VALID,0,VALID,96.7251,VALID,0,VALID,23.2282,VALID,309,VALID,0.452734,
2008-04-06, 00:08:04,VALID,1011.47,VALID,0,VALID,96.7403,VALID,0,VALID,23.1892,VALID,333,VALID,0.49375,
2008-04-06, 00:09:04,VALID,1011.48,VALID,0,VALID,96.7556,VALID,0,VALID,23.1892,VALID,323,VALID,0.710156,
2008-04-06, 00:10:04,VALID,1011.42,VALID,0,VALID,96.7403,VALID,0,VALID,23.1697,VALID,325,VALID,0.814062,
2008-04-06, 00:11:04,VALID,1011.42,VALID,0,VALID,96.7479,VALID,0,VALID,23.1892,VALID,321,VALID,0.616797,
2008-04-06, 00:12:04,VALID,1011.36,VALID,0,VALID,96.7403,VALID,0,VALID,23.1485,VALID,325,VALID,0.669531,
2008-04-06, 00:13:04,VALID,1011.32,VALID,0,VALID,96.7556,VALID,0,VALID,23.129,VALID,328,VALID,0.546484,
2008-04-06, 00:14:04,VALID,1011.33,VALID,0,VALID,96.7556,VALID,0,VALID,23.1095,VALID,330,VALID,0.349609,
2008-04-06, 00:15:04,VALID,1011.31,VALID,0,VALID,96.7174,VALID,0,VALID,23.09,VALID,330,VALID,0.277734,
2008-04-06, 00:16:04,VALID,1011.3,VALID,0,VALID,96.7556,VALID,0,VALID,23.0918,VALID,330,VALID,0.223047,
2008-04-06, 00:17:04,VALID,1011.3,VALID,0,VALID,96.7403,VALID,0,VALID,23.0511,VALID,330,VALID,0.215625,
2008-04-06, 00:18:04,VALID,1011.28,VALID,0,VALID,96.7708,VALID,0,VALID,23.0528,VALID,330,VALID,0.292188,
2008-04-06, 00:19:04,VALID,1011.25,VALID,0,VALID,96.7784,VALID,0,VALID,23.0316,VALID,328,VALID,0.142578,
2008-04-06, 00:20:04,VALID,1011.22,VALID,0,VALID,96.7784,VALID,0,VALID,23.0528,VALID,328,VALID,0,
2008-04-06, 00:21:04,VALID,1011.19,VALID,0,VALID,96.7861,VALID,0,VALID,23.0121,VALID,328,VALID,0.178906,
2008-04-06, 00:22:04,VALID,1011.17,VALID,0,VALID,96.7937,VALID,0,VALID,23.0138,VALID,328,VALID,0.0742188,
2008-04-06, 00:23:04,VALID,1011.2,VALID,0,VALID,96.7708,VALID,0,VALID,23.0138,VALID,328,VALID,0,
2008-04-06, 00:24:04,VALID,1011.17,VALID,0,VALID,96.8089,VALID,0,VALID,22.9926,VALID,328,VALID,0.321094,
2008-04-06, 00:25:04,VALID,1011.13,VALID,0,VALID,96.8471,VALID,0,VALID,23.0316,VALID,328,VALID,0.340625,
2008-04-06, 00:26:04,VALID,1011.15,VALID,0,VALID,96.8242,VALID,0,VALID,23.0723,VALID,328,VALID,0,
2008-04-06, 00:27:04,VALID,1011.15,VALID,0,VALID,96.8471,VALID,0,VALID,23.0723,VALID,328,VALID,0,
2008-04-06, 00:28:04,VALID,1011.1,VALID,0,VALID,96.8318,VALID,0,VALID,23.0723,VALID,328,VALID,0.16875,
2008-04-06, 00:29:04,VALID,1011.06,VALID,0,VALID,96.8318,VALID,0,VALID,23.0723,VALID,328,VALID,0,
2008-04-06, 00:30:04,VALID,1011.01,VALID,0,VALID,96.8547,VALID,0,VALID,23.0316,VALID,328,VALID,0,
2008-04-06, 00:31:04,VALID,1010.99,VALID,0,VALID,96.8471,VALID,0,VALID,23.0723,VALID,328,VALID,0,
2008-04-06, 00:32:04,VALID,1010.97,VALID,0,VALID,96.8318,VALID,0,VALID,23.0316,VALID,328,VALID,0.0785156,
2008-04-06, 00:33:04,VALID,1010.94,VALID,0,VALID,96.8776,VALID,0,VALID,23.0705,VALID,320,VALID,0.244922,
2008-04-06, 00:34:04,VALID,1010.89,VALID,0,VALID,96.8776,VALID,0,VALID,23.09,VALID,277,VALID,0.362109,
2008-04-06, 00:35:04,VALID,1010.93,VALID,0,VALID,96.8776,VALID,0,VALID,23.09,VALID,286,VALID,0.433203,
2008-04-06, 00:36:04,VALID,1010.94,VALID,0,VALID,96.8928,VALID,0,VALID,23.1095,VALID,280,VALID,0.620703,
2008-04-06, 00:37:04,VALID,1010.94,VALID,0,VALID,96.9081,VALID,0,VALID,23.1679,VALID,292,VALID,0.340234,
2008-04-06, 00:38:04,VALID,1010.94,VALID,0,VALID,96.8852,VALID,0,VALID,23.1485,VALID,290,VALID,0.333594,
2008-04-06, 00:39:04,VALID,1010.92,VALID,0,VALID,96.8928,VALID,0,VALID,23.1679,VALID,292,VALID,0.423047,
2008-04-06, 00:40:04,VALID,1010.92,VALID,0,VALID,96.8928,VALID,0,VALID,23.1874,VALID,287,VALID,0.325391,
2008-04-06, 00:41:04,VALID,1010.88,VALID,0,VALID,96.8547,VALID,0,VALID,23.1485,VALID,319,VALID,0.5,
2008-04-06, 00:42:04,VALID,1010.86,VALID,0,VALID,96.8166,VALID,0,VALID,23.1502,VALID,8,VALID,0.548047,
2008-04-06, 00:43:04,VALID,1010.84,VALID,0,VALID,96.8166,VALID,0,VALID,23.1112,VALID,30,VALID,0.411328,
2008-04-06, 00:44:04,VALID,1010.84,VALID,0,VALID,96.8166,VALID,0,VALID,23.1095,VALID,49,VALID,0.351953,
2008-04-06, 00:45:04,VALID,1010.85,VALID,0,VALID,96.8166,VALID,0,VALID,23.1095,VALID,78,VALID,0.429297,
2008-04-06, 00:46:04,VALID,1010.85,VALID,0,VALID,96.8318,VALID,0,VALID,23.0705,VALID,78,VALID,0.544922,
2008-04-06, 00:47:04,VALID,1010.84,VALID,0,VALID,96.8166,VALID,0,VALID,23.09,VALID,80,VALID,0.529297,
2008-04-06, 00:48:04,VALID,1010.86,VALID,0,VALID,96.8318,VALID,0,VALID,23.09,VALID,80,VALID,0.375781,
2008-04-06, 00:49:04,VALID,1010.85,VALID,0,VALID,96.8242,VALID,0,VALID,23.0705,VALID,80,VALID,0.432031,
2008-04-06, 00:50:04,VALID,1010.84,VALID,0,VALID,96.8166,VALID,0,VALID,23.0511,VALID,78,VALID,0.4125,
2008-04-06, 00:51:04,VALID,1010.85,VALID,0,VALID,96.8242,VALID,0,VALID,23.0511,VALID,78,VALID,0.285156,
2008-04-06, 00:52:04,VALID,1010.8,VALID,0,VALID,96.8242,VALID,0,VALID,23.0316,VALID,78,VALID,0.282813,
2008-04-06, 00:53:04,VALID,1010.77,VALID,0,VALID,96.8089,VALID,0,VALID,23.0121,VALID,78,VALID,0.286328,
2008-04-06, 00:54:04,VALID,1010.73,VALID,0,VALID,96.7937,VALID,0,VALID,22.9731,VALID,78,VALID,0.280078,
2008-04-06, 00:55:04,VALID,1010.74,VALID,0,VALID,96.7937,VALID,0,VALID,22.9536,VALID,78,VALID,0.380078,
2008-04-06, 00:56:04,VALID,1010.71,VALID,0,VALID,96.8013,VALID,0,VALID,22.9554,VALID,78,VALID,0.450781,
2008-04-06, 00:57:04,VALID,1010.72,VALID,0,VALID,96.8242,VALID,0,VALID,22.9342,VALID,78,VALID,0.562891,
2008-04-06, 00:58:04,VALID,1010.71,VALID,0,VALID,96.8471,VALID,0,VALID,22.9342,VALID,78,VALID,0.448828,
2008-04-06, 00:59:04,VALID,1010.71,VALID,0,VALID,96.8471,VALID,0,VALID,22.9536,VALID,78,VALID,0.376172,
2008-04-06, 01:00:04,VALID,1010.69,VALID,0,VALID,96.8471,VALID,0,VALID,22.9147,VALID,78,VALID,0.177734,
2008-04-06, 01:01:04,VALID,1010.7,VALID,0,VALID,96.8394,VALID,0,VALID,22.8952,VALID,78,VALID,0,
2008-04-06, 01:02:04,VALID,1010.69,VALID,0,VALID,96.8394,VALID,0,VALID,22.8757,VALID,78,VALID,0,
2008-04-06, 01:03:04,VALID,1010.68,VALID,0,VALID,96.8242,VALID,0,VALID,22.8775,VALID,78,VALID,0,
2008-04-06, 01:04:04,VALID,1010.66,VALID,0,VALID,96.8623,VALID,0,VALID,22.8775,VALID,78,VALID,0,
2008-04-06, 01:05:04,VALID,1010.64,VALID,0,VALID,96.8623,VALID,0,VALID,22.858,VALID,78,VALID,0.201953,
2008-04-06, 01:06:04,VALID,1010.62,VALID,0,VALID,96.8776,VALID,0,VALID,22.8562,VALID,79,VALID,0.279687,
2008-04-06, 01:07:04,VALID,1010.63,VALID,0,VALID,96.9005,VALID,0,VALID,22.8562,VALID,84,VALID,0.171094,
2008-04-06, 01:08:04,VALID,1010.64,VALID,0,VALID,96.8776,VALID,0,VALID,22.8562,VALID,84,VALID,0.169141,
2008-04-06, 01:09:04,VALID,1010.61,VALID,0,VALID,96.8852,VALID,0,VALID,22.8562,VALID,84,VALID,0,
2008-04-06, 01:10:04,VALID,1010.64,VALID,0,VALID,96.9005,VALID,0,VALID,22.8562,VALID,84,VALID,0,
2008-04-06, 01:11:04,VALID,1010.64,VALID,0,VALID,96.8852,VALID,0,VALID,22.8368,VALID,84,VALID,0,
2008-04-06, 01:12:04,VALID,1010.65,VALID,0,VALID,96.8928,VALID,0,VALID,22.8368,VALID,84,VALID,0,
2008-04-06, 01:13:04,VALID,1010.69,VALID,0,VALID,96.9386,VALID,0,VALID,22.8562,VALID,83,VALID,0.303125,
2008-04-06, 01:14:04,VALID,1010.72,VALID,0,VALID,96.9386,VALID,0,VALID,22.8757,VALID,311,VALID,0.503516,
2008-04-06, 01:15:04,VALID,1010.71,VALID,0,VALID,96.9386,VALID,0,VALID,22.9147,VALID,299,VALID,0.295312,
2008-04-06, 01:16:04,VALID,1010.74,VALID,0,VALID,96.9233,VALID,0,VALID,22.9147,VALID,286,VALID,0.278516,
2008-04-06, 01:17:04,VALID,1010.75,VALID,0,VALID,96.9386,VALID,0,VALID,22.9359,VALID,284,VALID,0.284766,
2008-04-06, 01:18:04,VALID,1010.72,VALID,0,VALID,96.9157,VALID,0,VALID,22.9554,VALID,284,VALID,0.225,
2008-04-06, 01:19:04,VALID,1010.76,VALID,0,VALID,96.9462,VALID,0,VALID,22.9554,VALID,284,VALID,0.229297,
2008-04-06, 01:20:04,VALID,1010.73,VALID,0,VALID,96.9462,VALID,0,VALID,22.9536,VALID,284,VALID,0.352734,
2008-04-06, 01:21:04,VALID,1010.76,VALID,0,VALID,96.9462,VALID,0,VALID,22.9536,VALID,284,VALID,0.264844,
2008-04-06, 01:22:04,VALID,1010.74,VALID,0,VALID,96.8928,VALID,0,VALID,22.9554,VALID,284,VALID,0,
2008-04-06, 01:23:04,VALID,1010.7,VALID,0,VALID,96.9005,VALID,0,VALID,22.9342,VALID,284,VALID,0.0753906,
2008-04-06, 01:24:04,VALID,1010.7,VALID,0,VALID,96.9005,VALID,0,VALID,22.9342,VALID,284,VALID,0.163672,
2008-04-06, 01:25:04,VALID,1010.67,VALID,0,VALID,96.9005,VALID,0,VALID,22.9359,VALID,284,VALID,0.243359,
2008-04-06, 01:26:04,VALID,1010.65,VALID,0,VALID,96.9005,VALID,0,VALID,22.9147,VALID,284,VALID,0.294922,
2008-04-06, 01:27:04,VALID,1010.68,VALID,0,VALID,96.9005,VALID,0,VALID,22.9147,VALID,298,VALID,0.391016,
2008-04-06, 01:28:04,VALID,1010.65,VALID,0,VALID,96.8852,VALID,0,VALID,22.9164,VALID,344,VALID,0.426562,
2008-04-06, 01:29:04,VALID,1010.68,VALID,0,VALID,96.8852,VALID,0,VALID,22.9164,VALID,354,VALID,0.391797,
2008-04-06, 01:30:04,VALID,1010.7,VALID,0,VALID,96.8699,VALID,0,VALID,22.8562,VALID,354,VALID,0.344531,
2008-04-06, 01:31:04,VALID,1010.71,VALID,0,VALID,96.8928,VALID,0,VALID,22.8562,VALID,354,VALID,0.301562,
2008-04-06, 01:32:04,VALID,1010.73,VALID,0,VALID,96.8852,VALID,0,VALID,22.9164,VALID,354,VALID,0.119922,
2008-04-06, 01:33:04,VALID,1010.71,VALID,0,VALID,96.931,VALID,0,VALID,22.8368,VALID,328,VALID,0.474219,
2008-04-06, 01:34:04,VALID,1010.7,VALID,0,VALID,96.9157,VALID,0,VALID,22.8757,VALID,327,VALID,0.30625,
2008-04-06, 01:35:04,VALID,1010.71,VALID,0,VALID,96.9386,VALID,0,VALID,22.8952,VALID,290,VALID,0.383203,
2008-04-06, 01:36:04,VALID,1010.7,VALID,0,VALID,96.9462,VALID,0,VALID,22.8952,VALID,272,VALID,0.39375,
2008-04-06, 01:37:04,VALID,1010.7,VALID,0,VALID,96.9767,VALID,0,VALID,22.9147,VALID,277,VALID,0.524219,
2008-04-06, 01:38:04,VALID,1010.68,VALID,0,VALID,96.9691,VALID,0,VALID,22.9342,VALID,278,VALID,0.107031,
2008-04-06, 01:39:04,VALID,1010.69,VALID,0,VALID,96.9462,VALID,0,VALID,22.9536,VALID,279,VALID,0.239844,
2008-04-06, 01:40:04,VALID,1010.66,VALID,0,VALID,96.931,VALID,0,VALID,22.9554,VALID,304,VALID,0.361328,
2008-04-06, 01:41:04,VALID,1010.69,VALID,0,VALID,96.9157,VALID,0,VALID,22.9536,VALID,304,VALID,0.290234,
2008-04-06, 01:42:04,VALID,1010.69,VALID,0,VALID,96.8623,VALID,0,VALID,22.8969,VALID,10,VALID,0.483984,
2008-04-06, 01:43:04,VALID,1010.72,VALID,0,VALID,96.8623,VALID,0,VALID,22.8775,VALID,21,VALID,0.395312,
2008-04-06, 01:44:04,VALID,1010.71,VALID,0,VALID,96.9005,VALID,0,VALID,22.8368,VALID,25,VALID,0.203906,
2008-04-06, 01:45:04,VALID,1010.7,VALID,0,VALID,96.9081,VALID,0,VALID,22.858,VALID,25,VALID,0.231641,
2008-04-06, 01:46:04,VALID,1010.72,VALID,0,VALID,96.9233,VALID,0,VALID,22.858,VALID,25,VALID,0.250781,
2008-04-06, 01:47:04,VALID,1010.7,VALID,0,VALID,96.9081,VALID,0,VALID,22.858,VALID,40,VALID,0.389062,
2008-04-06, 01:48:04,VALID,1010.67,VALID,0,VALID,96.9233,VALID,0.105969,VALID,22.8385,VALID,70,VALID,0.383984,
2008-04-06, 01:49:04,VALID,1010.64,VALID,0,VALID,96.9233,VALID,0,VALID,22.8368,VALID,86,VALID,0.6375,
2008-04-06, 01:50:04,VALID,1010.61,VALID,0,VALID,96.931,VALID,0,VALID,22.858,VALID,89,VALID,0.492969,
2008-04-06, 01:51:04,VALID,1010.56,VALID,0,VALID,96.9386,VALID,0,VALID,22.858,VALID,89,VALID,0.373047,
2008-04-06, 01:52:04,VALID,1010.56,VALID,0,VALID,96.9386,VALID,0,VALID,22.8562,VALID,89,VALID,0.227344,
2008-04-06, 01:53:04,VALID,1010.54,VALID,0,VALID,96.9386,VALID,0,VALID,22.8562,VALID,89,VALID,0.301953,
2008-04-06, 01:54:04,VALID,1010.51,VALID,0,VALID,96.9233,VALID,0,VALID,22.8562,VALID,89,VALID,0.235547,
2008-04-06, 01:55:04,VALID,1010.51,VALID,0,VALID,96.9005,VALID,0,VALID,22.8368,VALID,89,VALID,0.177734,
2008-04-06, 01:56:04,VALID,1010.54,VALID,0,VALID,96.9005,VALID,0,VALID,22.8173,VALID,89,VALID,0.223828,
2008-04-06, 01:57:04,VALID,1010.56,VALID,0,VALID,96.8852,VALID,0,VALID,22.7978,VALID,89,VALID,0.183594,
2008-04-06, 01:58:04,VALID,1010.58,VALID,0,VALID,96.8928,VALID,0,VALID,22.78,VALID,89,VALID,0.164453,
2008-04-06, 01:59:04,VALID,1010.58,VALID,0,VALID,96.9157,VALID,0,VALID,22.7588,VALID,89,VALID,0.0960938,
2008-04-06, 02:00:04,VALID,1010.62,VALID,0,VALID,96.9005,VALID,0.105969,VALID,22.7588,VALID,89,VALID,0.0199219,
2008-04-06, 02:01:04,VALID,1010.63,VALID,0,VALID,96.9157,VALID,0.105969,VALID,22.7411,VALID,89,VALID,0.129688,
2008-04-06, 02:02:04,VALID,1010.63,VALID,0,VALID,96.9157,VALID,0,VALID,22.7199,VALID,89,VALID,0,
2008-04-06, 02:03:04,VALID,1010.63,VALID,0,VALID,96.9081,VALID,0,VALID,22.7199,VALID,89,VALID,0,
2008-04-06, 02:04:04,VALID,1010.63,VALID,0,VALID,96.9157,VALID,0,VALID,22.7004,VALID,89,VALID,0,
2008-04-06, 02:05:04,VALID,1010.62,VALID,0,VALID,96.9386,VALID,0,VALID,22.7021,VALID,89,VALID,0,
2008-04-06, 02:06:04,VALID,1010.59,VALID,0,VALID,96.9615,VALID,0,VALID,22.7004,VALID,89,VALID,0,
2008-04-06, 02:07:04,VALID,1010.59,VALID,0,VALID,96.9462,VALID,0,VALID,22.7394,VALID,89,VALID,0.114063,
2008-04-06, 02:08:04,VALID,1010.55,VALID,0,VALID,96.9615,VALID,0,VALID,22.7394,VALID,89,VALID,0,
2008-04-06, 02:09:04,VALID,1010.56,VALID,0,VALID,96.9615,VALID,0,VALID,22.7783,VALID,89,VALID,0,
2008-04-06, 02:10:04,VALID,1010.54,VALID,0,VALID,96.9767,VALID,0,VALID,22.7588,VALID,89,VALID,0.114453,
2008-04-06, 02:11:04,VALID,1010.52,VALID,0,VALID,96.9538,VALID,0,VALID,22.7394,VALID,89,VALID,0.227734,
2008-04-06, 02:12:04,VALID,1010.51,VALID,0,VALID,96.9691,VALID,0,VALID,22.7995,VALID,89,VALID,0.384766,
2008-04-06, 02:13:04,VALID,1010.48,VALID,0,VALID,96.9767,VALID,0,VALID,22.7995,VALID,89,VALID,0.319531,
2008-04-06, 02:14:04,VALID,1010.47,VALID,0,VALID,96.9462,VALID,0,VALID,22.7783,VALID,89,VALID,0.342969,
2008-04-06, 02:15:04,VALID,1010.44,VALID,0,VALID,96.9843,VALID,0,VALID,22.7978,VALID,103,VALID,0.564062,
2008-04-06, 02:16:04,VALID,1010.39,VALID,0,VALID,96.9691,VALID,0,VALID,22.819,VALID,103,VALID,0.647266,
2008-04-06, 02:17:04,VALID,1010.35,VALID,0,VALID,96.9691,VALID,0,VALID,22.8368,VALID,102,VALID,0.796484,
2008-04-06, 02:18:04,VALID,1010.34,VALID,0,VALID,96.9996,VALID,0,VALID,22.858,VALID,105,VALID,0.730859,
2008-04-06, 02:19:04,VALID,1010.31,VALID,0,VALID,96.992,VALID,0,VALID,22.8757,VALID,107,VALID,1.00234,
2008-04-06, 02:20:04,VALID,1010.29,VALID,0,VALID,96.9538,VALID,0,VALID,22.8368,VALID,97,VALID,1.05195,
2008-04-06, 02:21:04,VALID,1010.3,VALID,0,VALID,96.9462,VALID,0,VALID,22.858,VALID,108,VALID,0.864453,
2008-04-06, 02:22:04,VALID,1010.27,VALID,0,VALID,96.9386,VALID,0,VALID,22.8775,VALID,113,VALID,0.725391,
2008-04-06, 02:23:04,VALID,1010.28,VALID,0,VALID,96.9157,VALID,0,VALID,22.8173,VALID,107,VALID,0.813281,
2008-04-06, 02:24:04,VALID,1010.28,VALID,0,VALID,96.9157,VALID,0,VALID,22.8173,VALID,118,VALID,0.469531,
2008-04-06, 02:25:04,VALID,1010.28,VALID,0,VALID,96.9386,VALID,0,VALID,22.819,VALID,112,VALID,0.634766,
2008-04-06, 02:26:04,VALID,1010.29,VALID,0,VALID,96.9157,VALID,0,VALID,22.8385,VALID,105,VALID,0.318359,
2008-04-06, 02:27:04,VALID,1010.26,VALID,0,VALID,96.9157,VALID,0,VALID,22.7995,VALID,105,VALID,0.249219,
2008-04-06, 02:28:04,VALID,1010.26,VALID,0,VALID,96.9233,VALID,0,VALID,22.819,VALID,105,VALID,0.137891,
2008-04-06, 02:29:04,VALID,1010.28,VALID,0,VALID,96.9157,VALID,0,VALID,22.7995,VALID,105,VALID,0.207031,
2008-04-06, 02:30:04,VALID,1010.27,VALID,0,VALID,96.9157,VALID,0,VALID,22.7995,VALID,104,VALID,0.242188,
2008-04-06, 02:31:04,VALID,1010.27,VALID,0,VALID,96.8928,VALID,0,VALID,22.78,VALID,88,VALID,0.496875,
2008-04-06, 02:32:04,VALID,1010.27,VALID,0,VALID,96.8776,VALID,0,VALID,22.7394,VALID,82,VALID,0.330859,
2008-04-06, 02:33:04,VALID,1010.24,VALID,0,VALID,96.8928,VALID,0,VALID,22.7394,VALID,82,VALID,0.269922,
2008-04-06, 02:34:04,VALID,1010.25,VALID,0,VALID,96.8928,VALID,0,VALID,22.7004,VALID,82,VALID,0.193359,
2008-04-06, 02:35:04,VALID,1010.3,VALID,0,VALID,96.9081,VALID,0,VALID,22.7216,VALID,82,VALID,0.265234,
2008-04-06, 02:36:04,VALID,1010.29,VALID,0,VALID,96.9005,VALID,0,VALID,22.7004,VALID,82,VALID,0.15625,
2008-04-06, 02:37:04,VALID,1010.32,VALID,0,VALID,96.9081,VALID,0,VALID,22.6809,VALID,82,VALID,0.102734,
2008-04-06, 02:38:04,VALID,1010.3,VALID,0,VALID,96.9005,VALID,0,VALID,22.7021,VALID,82,VALID,0.135156,
2008-04-06, 02:39:04,VALID,1010.31,VALID,0,VALID,96.9233,VALID,0,VALID,22.7021,VALID,82,VALID,0.301562,
2008-04-06, 02:40:04,VALID,1010.29,VALID,0,VALID,96.9386,VALID,0,VALID,22.7021,VALID,81,VALID,0.197656,
2008-04-06, 02:41:04,VALID,1010.28,VALID,0,VALID,96.9386,VALID,0,VALID,22.642,VALID,81,VALID,0.141406,
2008-04-06, 02:42:04,VALID,1010.3,VALID,0,VALID,96.9157,VALID,0,VALID,22.6614,VALID,81,VALID,0.00351562,
2008-04-06, 02:43:04,VALID,1010.29,VALID,0,VALID,96.9462,VALID,0,VALID,22.6809,VALID,81,VALID,0.0761719,
2008-04-06, 02:44:04,VALID,1010.28,VALID,0,VALID,96.9386,VALID,0,VALID,22.6809,VALID,81,VALID,0.0710938,
2008-04-06, 02:45:04,VALID,1010.26,VALID,0,VALID,96.9462,VALID,0,VALID,22.6614,VALID,81,VALID,0.194922,
2008-04-06, 02:46:04,VALID,1010.24,VALID,0,VALID,96.9462,VALID,0,VALID,22.6809,VALID,81,VALID,0.0308594,
2008-04-06, 02:47:04,VALID,1010.21,VALID,0,VALID,96.9538,VALID,0,VALID,22.6614,VALID,81,VALID,0,
2008-04-06, 02:48:04,VALID,1010.22,VALID,0,VALID,96.9386,VALID,0,VALID,22.642,VALID,81,VALID,0,
2008-04-06, 02:49:04,VALID,1010.21,VALID,0,VALID,96.9233,VALID,0,VALID,22.6225,VALID,81,VALID,0.0113281,
2008-04-06, 02:50:04,VALID,1010.23,VALID,0,VALID,96.9157,VALID,0.105969,VALID,22.603,VALID,81,VALID,0.225,
2008-04-06, 02:51:04,VALID,1010.26,VALID,0,VALID,96.9157,VALID,0,VALID,22.603,VALID,81,VALID,0.296094,
2008-04-06, 02:52:04,VALID,1010.31,VALID,0,VALID,96.931,VALID,0,VALID,22.5835,VALID,81,VALID,0.225391,
2008-04-06, 02:53:04,VALID,1010.33,VALID,0,VALID,96.931,VALID,0,VALID,22.564,VALID,81,VALID,0.196484,
2008-04-06, 02:54:04,VALID,1010.35,VALID,0,VALID,96.931,VALID,0,VALID,22.564,VALID,81,VALID,0.321094,
2008-04-06, 02:55:04,VALID,1010.35,VALID,0,VALID,96.9538,VALID,0,VALID,22.564,VALID,81,VALID,0.359375,
2008-04-06, 02:56:04,VALID,1010.33,VALID,0,VALID,96.9538,VALID,0,VALID,22.5835,VALID,81,VALID,0.566797,
2008-04-06, 02:57:04,VALID,1010.32,VALID,0,VALID,96.9615,VALID,0,VALID,22.603,VALID,81,VALID,0.539063,
2008-04-06, 02:58:04,VALID,1010.32,VALID,0,VALID,96.992,VALID,0,VALID,22.603,VALID,80,VALID,0.773047,
2008-04-06, 02:59:04,VALID,1010.29,VALID,0,VALID,96.9843,VALID,0,VALID,22.603,VALID,78,VALID,0.597266,
2008-04-06, 03:00:04,VALID,1010.28,VALID,0,VALID,96.9767,VALID,0,VALID,22.6437,VALID,79,VALID,0.275781,
2008-04-06, 03:01:04,VALID,1010.27,VALID,0,VALID,96.992,VALID,0,VALID,22.6225,VALID,79,VALID,0.267188,
2008-04-06, 03:02:04,VALID,1010.26,VALID,0,VALID,96.992,VALID,0.105969,VALID,22.6225,VALID,79,VALID,0.226563,
2008-04-06, 03:03:04,VALID,1010.29,VALID,0,VALID,96.9767,VALID,0,VALID,22.603,VALID,79,VALID,0.198437,
2008-04-06, 03:04:04,VALID,1010.31,VALID,0,VALID,96.9767,VALID,0,VALID,22.6437,VALID,79,VALID,0,
2008-04-06, 03:05:04,VALID,1010.29,VALID,0,VALID,96.9767,VALID,0,VALID,22.6225,VALID,79,VALID,0,
2008-04-06, 03:06:04,VALID,1010.29,VALID,0,VALID,96.992,VALID,0,VALID,22.603,VALID,79,VALID,0,
2008-04-06, 03:07:04,VALID,1010.25,VALID,0,VALID,97.0148,VALID,0,VALID,22.642,VALID,38,VALID,0.246094,
2008-04-06, 03:08:04,VALID,1010.27,VALID,0,VALID,97.0225,VALID,0,VALID,22.642,VALID,317,VALID,0.379297,
2008-04-06, 03:09:04,VALID,1010.23,VALID,0,VALID,97.0148,VALID,0.105969,VALID,22.6809,VALID,294,VALID,0.427734,
2008-04-06, 03:10:04,VALID,1010.21,VALID,0,VALID,96.9843,VALID,0,VALID,22.6809,VALID,282,VALID,0.320313,
2008-04-06, 03:11:04,VALID,1010.25,VALID,0,VALID,96.9843,VALID,0,VALID,22.6614,VALID,282,VALID,0.101172,
2008-04-06, 03:12:04,VALID,1010.26,VALID,0,VALID,96.9843,VALID,0,VALID,22.7216,VALID,282,VALID,0.028125,
2008-04-06, 03:13:04,VALID,1010.23,VALID,0,VALID,96.9843,VALID,0,VALID,22.7021,VALID,282,VALID,0.00117188,
2008-04-06, 03:14:04,VALID,1010.21,VALID,0,VALID,96.9843,VALID,0,VALID,22.6614,VALID,282,VALID,0.102734,
2008-04-06, 03:15:04,VALID,1010.23,VALID,0,VALID,96.9843,VALID,0,VALID,22.6614,VALID,282,VALID,0.242578,
2008-04-06, 03:16:04,VALID,1010.2,VALID,0,VALID,96.9843,VALID,0,VALID,22.7004,VALID,282,VALID,0.264453,
2008-04-06, 03:17:04,VALID,1010.19,VALID,0,VALID,96.9996,VALID,0,VALID,22.7004,VALID,282,VALID,0.413672,
2008-04-06, 03:18:04,VALID,1010.19,VALID,0,VALID,96.9996,VALID,0,VALID,22.7004,VALID,208,VALID,0.387109,
2008-04-06, 03:19:04,VALID,1010.19,VALID,0,VALID,96.9996,VALID,0,VALID,22.7394,VALID,129,VALID,0.469922,
2008-04-06, 03:20:04,VALID,1010.18,VALID,0,VALID,96.992,VALID,0,VALID,22.7199,VALID,128,VALID,0.563672,
2008-04-06, 03:21:04,VALID,1010.17,VALID,0,VALID,96.9996,VALID,0,VALID,22.7394,VALID,119,VALID,0.616797,
2008-04-06, 03:22:04,VALID,1010.19,VALID,0,VALID,97.0225,VALID,0,VALID,22.7995,VALID,119,VALID,0.433984,
2008-04-06, 03:23:04,VALID,1010.18,VALID,0,VALID,97.0072,VALID,0,VALID,22.7978,VALID,119,VALID,0.4875,
2008-04-06, 03:24:04,VALID,1010.18,VALID,0,VALID,97.0225,VALID,0,VALID,22.8368,VALID,107,VALID,0.745313,
2008-04-06, 03:25:04,VALID,1010.21,VALID,0,VALID,97.0148,VALID,0,VALID,22.8368,VALID,121,VALID,0.728125,
2008-04-06, 03:26:04,VALID,1010.19,VALID,0,VALID,96.992,VALID,0,VALID,22.858,VALID,124,VALID,0.475391,
2008-04-06, 03:27:04,VALID,1010.18,VALID,0,VALID,96.9691,VALID,0,VALID,22.8368,VALID,128,VALID,0.44375,
2008-04-06, 03:28:04,VALID,1010.16,VALID,0,VALID,96.9462,VALID,0,VALID,22.8173,VALID,136,VALID,0.871094,
2008-04-06, 03:29:04,VALID,1010.17,VALID,0,VALID,96.9538,VALID,0,VALID,22.7978,VALID,132,VALID,0.687109,
2008-04-06, 03:30:04,VALID,1010.14,VALID,0,VALID,96.9538,VALID,0,VALID,22.7995,VALID,130,VALID,0.668359,
2008-04-06, 03:31:04,VALID,1010.14,VALID,0,VALID,96.9538,VALID,0,VALID,22.8173,VALID,95,VALID,0.814844,
2008-04-06, 03:32:04,VALID,1010.11,VALID,0,VALID,96.9691,VALID,0,VALID,22.7978,VALID,106,VALID,0.720703,
2008-04-06, 03:33:04,VALID,1010.15,VALID,0,VALID,96.9462,VALID,0,VALID,22.8173,VALID,120,VALID,0.63125,
2008-04-06, 03:34:04,VALID,1010.15,VALID,0,VALID,96.9462,VALID,0,VALID,22.8368,VALID,122,VALID,0.454688,
2008-04-06, 03:35:04,VALID,1010.15,VALID,0,VALID,96.931,VALID,0,VALID,22.7978,VALID,135,VALID,0.575,
2008-04-06, 03:36:04,VALID,1010.17,VALID,0,VALID,96.9005,VALID,0,VALID,22.78,VALID,141,VALID,0.818359,
2008-04-06, 03:37:04,VALID,1010.15,VALID,0,VALID,96.8928,VALID,0,VALID,22.7394,VALID,150,VALID,0.461328,
2008-04-06, 03:38:04,VALID,1010.14,VALID,0,VALID,96.9081,VALID,0,VALID,22.7394,VALID,174,VALID,0.414844,
2008-04-06, 03:39:04,VALID,1010.12,VALID,0,VALID,96.931,VALID,0,VALID,22.7216,VALID,154,VALID,0.264844,
2008-04-06, 03:40:04,VALID,1010.1,VALID,0,VALID,96.931,VALID,0.105969,VALID,22.7394,VALID,176,VALID,0.338672,
2008-04-06, 03:41:04,VALID,1010.11,VALID,0,VALID,96.931,VALID,0,VALID,22.7411,VALID,177,VALID,0.573828,
2008-04-06, 03:42:04,VALID,1010.09,VALID,0,VALID,96.931,VALID,0,VALID,22.7411,VALID,181,VALID,0.489844,
2008-04-06, 03:43:04,VALID,1010.09,VALID,0,VALID,96.9462,VALID,0,VALID,22.7199,VALID,181,VALID,0.190234,
2008-04-06, 03:44:04,VALID,1010.12,VALID,0,VALID,96.9538,VALID,0,VALID,22.7411,VALID,181,VALID,0.326562,
2008-04-06, 03:45:04,VALID,1010.14,VALID,0,VALID,96.9462,VALID,0,VALID,22.7606,VALID,200,VALID,0.480078,
2008-04-06, 03:46:04,VALID,1010.14,VALID,0,VALID,96.9233,VALID,0,VALID,22.7411,VALID,201,VALID,0.584766,